Location: Milton Keynes
(52.0316°N, 0.7531°W)
Time: 01:26:45
(UTC+00:00)

GENESIS II - Pass Details

Date: 31 January 2019
Orbit: 487 x 544 km, 64.5° (Epoch: 19 February)

Event Time Altitude Azimuth Distance (km) Brightness Sun altitude
Exits shadow 04:37:52 - 152° (SSE) 1,985 7.4 -28.8°
Reaches altitude 10° 04:38:56 10° 140° (SE) 1,747 7.2 -28.6°
Maximum altitude 04:40:45 13° 112° (ESE) 1,579 7.3 -28.3°
Drops below altitude 10° 04:42:35 10° 84° (E) 1,770 7.9 -28.0°
Sets 04:45:49 0° 57° (ENE) 2,680 8.8 -27.6°
